Retour au catalogue

INTELSAT 503

ActifCommunicationsGEO
NORAD 12994·PAYLOAD· XX

Lancé Dec 15, 1981 depuis Cape Canaveral Space Force Station

Loading…

TLE

FraisSource: Space-Track

Époque: Sep 14, 2026, 12:46 UTC

1 12994U 81119A   26257.53206206 -.00000339  00000-0  00000-0 0  9997
2 12994  11.1398 326.5358 0051840 269.4460  90.7394  0.99469580127597

Suivez INTELSAT 503 en temps réel avec AllMySat

Download on the App Store